TimePDT,TemperatureF,Dew PointF,Humidity,Sea Level PressureIn,VisibilityMPH,Wind Direction,Wind SpeedMPH,Gust SpeedMPH,PrecipitationIn,Events,Conditions,WindDirDegrees,DateUTC
12:53 AM,46.0,45.0,96,30.35,10.0,Calm,Calm,-,N/A,,Partly Cloudy,0,2013-10-05 07:53:00
1:53 AM,48.0,46.0,93,30.36,10.0,Calm,Calm,-,N/A,,Overcast,0,2013-10-05 08:53:00
2:53 AM,48.9,46.9,93,30.35,10.0,SW,3.5,-,N/A,,Overcast,220,2013-10-05 09:53:00
3:53 AM,50.0,48.0,93,30.35,10.0,Calm,Calm,-,N/A,,Overcast,0,2013-10-05 10:53:00
4:53 AM,50.0,48.0,93,30.35,10.0,WNW,4.6,-,N/A,,Overcast,290,2013-10-05 11:53:00
5:53 AM,51.1,48.0,89,30.34,10.0,SSE,3.5,-,N/A,,Overcast,160,2013-10-05 12:53:00
6:53 AM,51.1,48.0,89,30.34,10.0,Calm,Calm,-,N/A,,Overcast,0,2013-10-05 13:53:00
7:53 AM,50.0,48.0,93,30.32,10.0,Calm,Calm,-,N/A,,Overcast,0,2013-10-05 14:53:00
8:53 AM,53.1,48.0,83,30.34,10.0,Calm,Calm,-,N/A,,Overcast,0,2013-10-05 15:53:00
9:53 AM,54.0,50.0,86,30.33,10.0,East,3.5,-,N/A,,Mostly Cloudy,80,2013-10-05 16:53:00
10:53 AM,54.0,48.0,80,30.32,10.0,NNE,3.5,-,N/A,,Clear,20,2013-10-05 17:53:00
11:53 AM,55.0,48.9,80,30.32,10.0,NNE,5.8,-,N/A,,Clear,20,2013-10-05 18:53:00
12:53 PM,59.0,48.9,69,30.30,10.0,ENE,4.6,-,N/A,,Clear,70,2013-10-05 19:53:00
1:53 PM,59.0,50.0,72,30.28,10.0,Variable,4.6,-,N/A,,Clear,0,2013-10-05 20:53:00
2:53 PM,59.0,50.0,72,30.25,10.0,ENE,4.6,-,N/A,,Clear,60,2013-10-05 21:53:00
3:53 PM,60.1,46.0,60,30.24,10.0,East,4.6,-,N/A,,Clear,80,2013-10-05 22:53:00
4:53 PM,60.1,46.0,60,30.22,10.0,NE,3.5,-,N/A,,Clear,50,2013-10-05 23:53:00
5:53 PM,57.9,46.0,65,30.21,10.0,Calm,Calm,-,N/A,,Clear,0,2013-10-06 00:53:00
6:53 PM,54.0,48.0,80,30.20,10.0,Calm,Calm,-,N/A,,Clear,0,2013-10-06 01:53:00
7:53 PM,51.1,48.0,89,30.19,10.0,Calm,Calm,-,N/A,,Clear,0,2013-10-06 02:53:00
8:53 PM,48.9,46.0,90,30.18,10.0,SSE,3.5,-,N/A,,Clear,160,2013-10-06 03:53:00
9:53 PM,48.0,46.0,93,30.17,10.0,SE,3.5,-,N/A,,Clear,130,2013-10-06 04:53:00
10:53 PM,48.9,46.0,90,30.16,10.0,Calm,Calm,-,N/A,,Clear,0,2013-10-06 05:53:00
11:53 PM,46.9,45.0,93,30.15,10.0,Calm,Calm,-,N/A,,Clear,0,2013-10-06 06:53:00